DW7955 Weather Reports


time (UTC)temp
C
wind
direction
speed
KPH
gust
KPH
rain 1hr
cm
rain 24hr
cm
rain mn
cm
humidity
%
barometer
mb
20260510224513 18 103 14.5 24.1 0.00 0.00 0.00 43 1016.3
20260510223004 18 64 14.5 30.6 0.00 0.00 0.00 45 1016.2
20260510221505 18 115 11.3 30.6 0.00 0.00 0.00 44 1016.3
20260510220003 18 73 14.5 25.7 0.00 0.00 0.00 44 1016.2
20260510214502 18 38 14.5 24.1 0.00 0.00 0.00 44 1016.3
20260510213002 18 63 17.7 35.4 0.00 0.00 0.00 44 1016.5
20260510211500 18 56 12.9 22.5 0.00 0.00 0.00 45 1016.7
20260510210059 17 90 12.9 24.1 0.00 0.00 0.00 44 1016.8
20260510204605 18 45 8.0 22.5 0.00 0.00 0.00 46 1016.9
20260510203058 18 124 8.0 19.3 0.00 0.00 0.00 46 1017.0
20260510201558 17 133 8.0 19.3 0.00 0.00 0.00 46 1017.0
20260510200107 17 185 6.4 12.9 0.00 0.00 0.00 47 1016.9
20260510194605 16 51 9.7 24.1 0.00 0.00 0.00 49 1017.0
20260510193102 16 134 12.9 22.5 0.00 0.00 0.00 49 1017.0
20260510191551 17 92 8.0 14.5 0.00 0.00 0.00 50 1017.1
20260510190053 16 180 6.4 16.1 0.00 0.00 0.00 52 1017.1
20260510184551 15 141 4.8 20.9 0.00 0.00 0.00 55 1017.1
20260510183044 15 168 6.4 16.1 0.00 0.00 0.00 55 1017.2
20260510181541 15 150 6.4 17.7 0.00 0.00 0.00 58 1017.4
20260510180042 15 181 6.4 22.5 0.00 0.00 0.00 57 1017.4
20260510174540 14 73 8.0 19.3 0.00 0.00 0.00 61 1017.4
20260510173035 13 108 6.4 22.5 0.00 0.00 0.00 64 1017.5
20260510171535 13 131 12.9 19.3 0.00 0.00 0.00 63 1017.4
20260510170032 13 122 4.8 25.7 0.00 0.00 0.00 66 1017.3
20260510164531 13 124 9.7 17.7 0.00 0.00 0.00 68 1017.4
20260510163031 12 78 4.8 12.9 0.00 0.00 0.00 70 1017.4
20260510161531 12 123 3.2 17.7 0.00 0.00 0.00 70 1017.4
20260510160034 12 111 3.2 16.1 0.00 0.00 0.00 68 1017.5
20260510154528 11 119 4.8 11.3 0.00 0.00 0.00 72 1017.5
20260510153022 11 81 6.4 14.5 0.00 0.00 0.00 73 1017.5
20260510151525 11 74 3.2 11.3 0.00 0.00 0.00 74 1017.4
20260510150020 11 71 6.4 12.9 0.00 0.00 0.00 75 1017.4
20260510144522 11 35 1.6 8.0 0.00 0.00 0.00 75 1017.3
20260510143019 11 46 4.8 8.0 0.00 0.00 0.00 77 1017.3
20260510141518 11 66 0.0 3.2 0.00 0.00 0.00 75 1017.4
20260510140014 11 149 0.0 1.6 0.00 0.00 0.00 75 1017.2
20260510134514 11 149 0.0 4.8 0.00 0.00 0.00 74 1017.2
20260510133012 11 50 0.0 4.8 0.00 0.00 0.00 76 1017.3
20260510131509 10 56 3.2 6.4 0.00 0.00 0.00 79 1017.1
20260510130007 10 129 0.0 3.2 0.00 0.00 0.00 82 1016.9
20260510124507 9 128 0.0 0.0 0.00 0.00 0.00 83 1016.8
20260510123006 9 128 0.0 0.0 0.00 0.00 0.00 83 1016.9
20260510121504 9 128 0.0 0.0 0.00 0.00 0.00 84 1016.7
20260510120002 9 128 0.0 0.0 0.00 0.00 0.00 83 1016.7
20260510114502 9 128 0.0 0.0 0.00 0.00 0.00 84 1016.6
20260510113001 9 128 0.0 0.0 0.00 0.00 0.00 84 1016.5
20260510111609 9 128 0.0 0.0 0.00 0.00 0.00 84 1016.5
20260510110059 9 128 0.0 4.8 0.00 0.00 0.00 84 1016.5
20260510104620 9 55 1.6 9.7 0.00 0.00 0.00 84 1016.4
20260510103058 9 54 4.8 8.0 0.00 0.00 0.00 84 1016.6
20260510101607 9 10 3.2 9.7 0.00 0.00 0.00 84 1016.5
20260510094605 9 11 6.4 11.3 0.00 0.00 0.00 83 1016.5
20260510093054 9 7 9.7 17.7 0.00 0.00 0.00 83 1016.4
20260510091551 10 5 8.0 17.7 0.00 0.00 0.00 82 1016.2
20260510090052 10 36 9.7 19.3 0.00 0.00 0.00 82 1016.1
20260510084548 10 43 8.0 17.7 0.00 0.00 0.00 82 1016.2
20260510083047 10 6 8.0 19.3 0.00 0.00 0.00 82 1016.0
20260510081545 10 339 8.0 14.5 0.00 0.00 0.00 82 1015.8
20260510080043 10 40 9.7 17.7 0.00 0.00 0.00 81 1015.6
20260510074545 10 43 6.4 19.3 0.00 0.00 0.00 81 1015.4
20260510073044 10 32 14.5 27.4 0.00 0.00 0.00 80 1015.3
20260510071539 10 31 16.1 32.2 0.00 0.00 0.00 78 1015.3
20260510070037 10 57 17.7 35.4 0.00 0.00 0.00 75 1015.3
20260510064529 11 15 20.9 38.6 0.00 0.00 0.00 69 1014.6
20260510063026 11 40 24.1 38.6 0.00 0.00 0.00 66 1014.1
20260510061523 12 34 25.7 48.3 0.00 0.00 0.00 63 1014.0
20260510060020 12 10 22.5 45.1 0.00 0.00 0.00 62 1013.5
20260510054516 12 40 32.2 56.3 0.00 0.00 0.00 60 1012.7
20260510053013 12 32 27.4 49.9 0.00 0.00 0.00 58 1011.4
20260510051511 13 9 35.4 59.5 0.00 0.00 0.00 58 1010.5
20260510050014 13 15 33.8 54.7 0.00 0.00 0.00 56 1010.6
20260510044511 13 1 38.6 57.9 0.00 0.00 0.00 53 1010.4
20260510043010 13 7 35.4 67.6 0.00 0.00 0.00 54 1010.2
20260510041506 14 346 38.6 67.6 0.00 0.00 0.00 53 1009.7
20260510040002 15 340 38.6 61.2 0.00 0.00 0.00 51 1009.3
20260510034600 17 9 27.4 43.5 0.00 0.00 0.00 40 1008.9
20260510033126 18 18 4.8 12.9 0.00 0.00 0.00 34 1007.7
20260510031622 19 80 11.3 19.3 0.00 0.00 0.00 32 1006.7
20260510030101 18 58 11.3 16.1 0.00 0.00 0.00 32 1006.5
20260510024557 19 59 11.3 17.7 0.00 0.00 0.00 31 1006.1
20260510023056 20 34 9.7 14.5 0.00 0.00 0.00 29 1005.6
20260510021556 20 53 12.9 17.7 0.00 0.00 0.00 28 1005.2
20260510020055 21 74 8.0 16.1 0.00 0.00 0.00 25 1004.7
20260510014606 21 75 6.4 14.5 0.00 0.00 0.00 24 1004.2
20260510013054 21 117 6.4 11.3 0.00 0.00 0.00 22 1004.3
20260510011559 22 32 4.8 27.4 0.00 0.00 0.00 23 1004.7
20260510004557 21 336 6.4 22.5 0.00 0.00 0.00 27 1005.4
20260510003059 21 7 14.5 35.4 0.00 0.00 0.00 25 1005.0
20260510001552 22 36 14.5 25.7 0.00 0.00 0.00 24 1004.5
20260510000055 22 9 16.1 35.4 0.00 0.00 0.00 21 1004.4
20260509234605 23 13 30.6 51.5 0.00 0.00 0.00 20 1003.6
20260509233050 23 37 9.7 37.0 0.00 0.00 0.00 19 1003.2
20260509231550 23 65 14.5 27.4 0.00 0.00 0.00 18 1002.7
20260509230052 23 49 17.7 25.7 0.00 0.00 0.00 18 1002.8